Flag for Uruguay

Past Weather in Minas, Uruguay — Yesterday and Last 2 Weeks

Now
70 °F

Passing clouds.


Feels Like: 70 °F
Forecast: 64 / 46 °F
Wind: 10 mph from Northeast

Location: Capitan Corbeta
Current Time: Oct 26, 2020 at 2:01:11 am
Latest Report: Oct 26, 2020 at 1:00 am
Visibility: N/A
Pressure29.71 "Hg
Humidity: 94%
Dew Point: 68 °F
Location of MinasLocation

Past Weather in Minas — Graph

°F

Minas Temperature Yesterday

Maximum temperature yesterday: 79 °F (at 2:00 pm)
Minimum temperature yesterday: 63 °F (at 12:00 am)
Average temperature yesterday: 70 °F

High & Low Weather Summary for the Past Weeks

 TemperatureHumidityPressure
High86 °F (Oct 19, 4:00 pm)100% (Oct 11, 3:00 am)30.36 "Hg (Oct 11, 3:00 am)
Low46 °F (Oct 11, 3:00 am)44% (Oct 11, 2:00 pm)29.68 "Hg (Oct 25, 7:00 pm)
Average62 °F82%30.03 "Hg
* Reported Oct 11 1:00 am — Oct 26 1:00 am, Minas. Weather by CustomWeather, © 2020

Note: Actual official high and low records may vary slightly from our data, if they occured in-between our weather recording intervals... More about our weather records

Minas Weather History for the Previous 24 Hours

Scroll right to see more
 ConditionsComfort  
Time TempWeatherWind HumidityBarometerVisibility
1:00 am
Mon, Oct 26
70 °FPassing clouds.10 mph94%29.71 "HgN/A
12:00 am72 °FOvercast.10 mph88%29.74 "HgN/A
11:00 pm
Sun, Oct 25
72 °FMostly cloudy.15 mph88%29.74 "HgN/A
10:00 pm73 °FPartly cloudy.9 mph83%29.77 "HgN/A
9:00 pm73 °FClear.7 mph83%29.77 "Hg10 mi
8:00 pm73 °FPassing clouds.10 mph83%29.74 "HgN/A
7:00 pm73 °FPartly sunny.14 mph89%29.68 "HgN/A
6:00 pm75 °FMostly cloudy.5 mph78%29.74 "HgN/A
5:00 pm77 °FOvercast.6 mph74%29.74 "HgN/A
4:00 pm79 °FMore clouds than sun.12 mph70%29.74 "HgN/A
3:00 pm79 °FPartly sunny.10 mph65%29.77 "HgN/A
2:00 pm79 °FPartly sunny.8 mph65%29.77 "HgN/A
1:00 pm77 °FPartly sunny.10 mph69%29.77 "HgN/A
12:00 pm75 °FPartly sunny.13 mph69%29.80 "HgN/A
11:00 am72 °FBroken clouds.13 mph78%29.83 "HgN/A
10:00 am70 °FBroken clouds.12 mph83%29.86 "HgN/A
9:00 am68 °FPartly sunny.12 mph83%29.83 "HgN/A
8:00 am64 °FLow clouds.14 mph94%29.83 "HgN/A
7:00 am64 °FLow clouds.10 mph94%29.83 "HgN/A
6:00 am64 °FLow clouds.7 mph94%29.83 "HgN/A
5:00 am64 °FLow clouds.8 mph94%29.83 "HgN/A
4:00 am63 °FPassing clouds.9 mph100%29.83 "HgN/A
3:00 am63 °FPassing clouds.10 mph100%29.83 "HgN/A
2:00 am63 °FLow clouds.9 mph94%29.86 "HgN/A
Weather by CustomWeather, © 2020

See weather overview